Weather History for Annapolis Naval Academy, MD

Change the Weather History Date:

Wednesday, October 5, 2011

  Actual Average (KBWI) Record (KBWI)
Temperature  
Mean Temperature 64 °F 60 °F  
Max Temperature 73 °F 70 °F 97 °F (1941)
Min Temperature 55 °F 49 °F 35 °F (1965)
Degree Days  
Heating Degree Days 1 6  
Month to date heating degree days 28  
Since 1 July heating degree days 81  
Cooling Degree Days 0 1  
Month to date cooling degree days 6  
Year to date cooling degree days 1151  
Growing Degree Days 14 (Base 50)    
Moisture  
Dew Point 51 °F    
Average Humidity 66    
Maximum Humidity 87    
Minimum Humidity 38    
Precipitation  
Precipitation 0.00 in 0.12 in 2.78 in (1902)
Month to date precipitation 0.57  
Year to date precipitation 32.45  
Snow  
Snow 0.00 in 0.00 in - ()
Month to date snowfall 0.0  
Since 1 July snowfall 0.0  
Snow Depth -    
Sea Level Pressure  
Sea Level Pressure 30.18 in    
Wind  
Wind Speed 5 mph (WNW)    
Max Wind Speed 10 mph    
Max Gust Speed -    
Visibility 10 miles    
Events      
T = Trace of Precipitation, MM = Missing Value Source: NWS Daily Summary

Daily Weather History Graph

Daily Weather History Graph

Search for Another Location

Airport:

Trip Planner

Search our weather history database for the weather conditions in past years. The results will help you decide how hot, cold, wet, or windy it might be!

Date:

Astronomy

Oct. 05, 2011 Rise Set
Actual Time 7:05 AM EDT 6:42 PM EDT
Civil Twilight 6:38 AM EDT 7:09 PM EDT
Nautical Twilight 6:07 AM EDT 7:40 PM EDT
Astronomical Twilight 5:36 AM EDT 8:11 PM EDT
Moon 3:19 PM EDT (10/5) 12:52 AM EDT (10/5)
Length of Visible Light 12h 30m
Length of Day
11h 37m
Waxing Gibbous, 66% of the Moon is Illuminated
Oct 5
Waxing Gibbous
Oct 11
Full
Oct 19
Last Quarter
Oct 26
New
Nov 2
First Quarter

Hourly Weather History & Observations

Time (EDT) Temp. Dew Point Humidity Pressure Visibility Wind Dir Wind Speed Gust Speed Precip Events Conditions
12:54 AM 57.9 °F 53.1 °F 84% 30.14 in 10.0 mi West 4.6 mph - N/A   Clear
1:54 AM 57.9 °F 53.1 °F 84% 30.15 in 10.0 mi West 4.6 mph - N/A   Clear
2:54 AM 57.0 °F 52.0 °F 83% 30.16 in 10.0 mi West 4.6 mph - N/A   Clear
3:54 AM 55.9 °F 52.0 °F 87% 30.16 in 10.0 mi West 5.8 mph - N/A   Clear
4:54 AM 55.9 °F 52.0 °F 87% 30.17 in 10.0 mi West 5.8 mph - N/A   Clear
5:54 AM 57.0 °F 52.0 °F 83% 30.17 in 10.0 mi WNW 3.5 mph - N/A   Clear
6:54 AM 55.9 °F 52.0 °F 87% 30.19 in 10.0 mi WNW 3.5 mph - N/A   Clear
7:54 AM 57.0 °F 52.0 °F 83% 30.19 in 10.0 mi WNW 5.8 mph - N/A   Clear
8:54 AM 61.0 °F 52.0 °F 72% 30.20 in 10.0 mi WNW 5.8 mph - N/A   Clear
9:54 AM 64.0 °F 52.0 °F 65% 30.20 in 10.0 mi WNW 6.9 mph - N/A   Clear
10:54 AM 66.0 °F 50.0 °F 56% 30.20 in 10.0 mi NW 8.1 mph - N/A   Clear
11:54 AM 69.1 °F 48.9 °F 49% 30.19 in 10.0 mi NW 10.4 mph - N/A   Clear
12:54 PM 70.0 °F 48.0 °F 46% 30.18 in 10.0 mi NW 10.4 mph - N/A   Clear
1:54 PM 72.0 °F 48.0 °F 43% 30.16 in 10.0 mi NW 6.9 mph - N/A   Clear
2:54 PM 73.0 °F 46.0 °F 38% 30.14 in 10.0 mi WNW 8.1 mph - N/A   Clear
3:54 PM 73.9 °F 46.9 °F 38% 30.14 in 10.0 mi NW 9.2 mph - N/A   Clear
4:54 PM 73.9 °F 46.9 °F 38% 30.14 in 10.0 mi NW 6.9 mph - N/A   Clear
5:54 PM 73.0 °F 48.9 °F 42% 30.15 in 10.0 mi WNW 4.6 mph - N/A   Clear
6:54 PM 66.0 °F 54.0 °F 65% 30.16 in 8.0 mi Calm Calm - N/A   Clear
7:54 PM 63.0 °F 54.0 °F 72% 30.18 in 10.0 mi Calm Calm - N/A   Clear
8:54 PM 61.0 °F 54.0 °F 78% 30.20 in 10.0 mi Calm Calm - N/A   Clear
9:54 PM 62.1 °F 57.0 °F 84% 30.22 in 9.0 mi NW 3.5 mph - N/A   Clear
10:54 PM 64.9 °F 52.0 °F 63% 30.25 in 10.0 mi North 6.9 mph - N/A   Clear
11:54 PM 66.0 °F 50.0 °F 56% 30.27 in 10.0 mi North 8.1 mph - N/A   Clear